User: anonymous   Login
Location: Sungai Buloh
(3.1000°N, 113.0000°E)
Time: 09:57:39
(UTC+00:00)
Language:

Cosmos 1140 Rocket - Orbit

View from above orbital plane
View from above orbital plane
View from above satellite
View from above satellite

Ground track
Ground track

The orbit is defined by the following mean orbital elements,

1 11574U          26076.09759009 +.00000000 +00000-0 +97315-4 0 00000
2 11574  74.0669  77.3290 0017062 249.2009 110.7320 14.42355957    01
Epoch (UTC): 17 March 2026 02:20:31
Eccentricity: 0.0017062
inclination: 74.0669°
perigee height: 739 km
apogee height: 763 km
right ascension of ascending node: 77.3290°
argument of perigee: 249.2009°
revolutions per day: 14.42355957
mean anomaly at epoch: 110.7320°

The dashed part of the orbit path shows where the satellite is in the earth's shadow,  

DLR